Date String (YYYY-MM-DD hh:mm:ss) UTC,Instrument flags,Ambient pressure (hPa),Sample flow (lpm),Bypass flow (lpm),Sample temperature (°C),Ambient temperature (°C),ASC tube jacket temperature (°C),LED temperature (°C),Box temperature (°C),Sample RH (%),Span deviation,Mass concentration (μg/m³),Mass concentration (μg/m³),Mass concentration (μg/m³)
DateTimeUTC,F1_M11,P_M11,Q1_M11,Q2_M11,T1_M11,T2_M11,T3_M11,T4_M11,T5_M11,U1_M11,ZSPAN_M11,X0_M11,X2_M11,X1_M11
2021-08-31 21:00:00,,0822.3,4.99,0.00,28.8,26.7,00.0,37.8,30.5,12.0,-000.7,0036.01,0023.08,0021.58
2021-08-31 21:01:00,,0822.4,5.01,0.00,28.8,27.0,00.0,37.8,30.6,12.0,-000.8,0035.88,0022.96,0021.57
2021-08-31 21:02:00,,0822.3,4.99,0.00,28.9,27.4,00.0,37.8,30.8,12.0,-000.7,0034.79,0022.82,0021.49
2021-08-31 21:03:00,,0822.3,5.00,0.00,29.0,27.7,00.0,37.9,30.9,12.6,-000.7,0034.68,0022.79,0021.47
2021-08-31 21:04:00,,0822.3,5.01,0.00,28.9,26.7,00.0,37.9,30.5,12.3,-000.5,0034.02,0022.81,0021.48
2021-08-31 21:05:00,,0822.3,5.00,0.00,28.8,25.6,00.0,37.8,30.1,12.0,-000.2,0034.63,0022.82,0021.51
2021-08-31 21:06:00,,0822.2,4.99,0.00,28.7,26.0,00.0,37.8,30.2,12.2,0000.1,0035.11,0022.87,0021.53
2021-08-31 21:07:00,,0822.2,5.00,0.00,28.7,26.4,00.0,37.8,30.4,12.1,0000.5,0035.17,0022.92,0021.57
2021-08-31 21:08:00,,0822.2,4.99,0.00,28.7,26.8,00.0,37.8,30.5,12.0,0000.9,0035.79,0022.97,0021.60
2021-08-31 21:09:00,,0822.2,5.00,0.00,28.8,27.2,00.0,37.8,30.6,11.9,0001.1,0034.97,0023.02,0021.67
2021-08-31 21:10:00,,0822.2,5.00,0.00,28.9,27.6,00.0,37.8,30.8,12.2,0000.9,0035.07,0023.17,0021.79
2021-08-31 21:11:00,,0822.2,5.00,0.00,28.9,27.7,00.0,37.9,30.9,12.6,0000.7,0035.14,0023.22,0021.84
2021-08-31 21:12:00,,0822.2,4.99,0.00,28.9,26.7,00.0,37.9,30.6,12.8,0000.9,0034.97,0023.27,0021.89
2021-08-31 21:13:00,,0822.1,5.01,0.00,28.8,25.6,00.0,37.9,30.2,12.5,0000.9,0035.03,0023.38,0021.99
2021-08-31 21:14:00,,0822.1,5.00,0.00,28.7,26.0,00.0,37.8,30.3,12.1,0000.7,0034.91,0023.44,0022.07
2021-08-31 21:15:00,,0822.1,5.00,0.00,28.7,26.4,00.0,37.8,30.4,12.4,0000.4,0034.90,0023.49,0022.10
2021-08-31 21:16:00,,0822.1,5.00,0.00,28.8,26.8,00.0,37.8,30.5,12.4,0000.4,0034.03,0023.54,0022.13
2021-08-31 21:17:00,,0822.1,4.99,0.00,28.8,27.2,00.0,37.8,30.7,12.3,0000.6,0033.74,0023.57,0022.17
2021-08-31 21:18:00,,0822.1,5.01,0.00,28.9,27.5,00.0,37.8,30.8,12.6,0000.6,0034.86,0023.62,0022.19
2021-08-31 21:19:00,,0822.1,4.99,0.00,29.0,27.8,00.0,37.9,30.9,13.2,0000.6,0034.22,0023.75,0022.28
2021-08-31 21:20:00,,0822.0,5.01,0.00,29.0,26.7,00.0,37.9,30.6,13.4,0000.7,0034.46,0023.91,0022.40
2021-08-31 21:21:00,,0822.0,4.99,0.00,28.8,25.6,00.0,37.9,30.3,13.3,0000.9,0034.56,0024.07,0022.51
2021-08-31 21:22:00,,0821.9,5.00,0.00,28.8,26.0,00.0,37.8,30.3,13.2,0000.7,0034.85,0024.22,0022.63
2021-08-31 21:23:00,,0822.0,4.99,0.00,28.8,26.4,00.0,37.8,30.5,13.7,0000.6,0035.94,0024.37,0022.74
2021-08-31 21:24:00,,0821.9,5.01,0.00,28.8,26.9,00.0,37.8,30.6,13.2,0000.6,0038.07,0024.55,0022.89
2021-08-31 21:25:00,,0822.1,4.99,0.00,28.9,27.3,00.0,37.8,30.7,13.2,0000.7,0038.78,0024.76,0023.06
2021-08-31 21:26:00,,0821.9,5.01,0.00,28.9,27.6,00.0,37.8,30.8,13.2,0000.7,0039.19,0024.92,0023.23
2021-08-31 21:27:00,,0821.8,5.01,0.00,29.0,27.8,00.0,37.9,30.9,13.0,0000.8,0040.23,0025.09,0023.39
2021-08-31 21:28:00,,0821.8,5.00,0.00,29.0,26.8,00.0,37.9,30.6,13.1,0000.7,0042.28,0025.23,0023.49
2021-08-31 21:29:00,,0821.8,4.99,0.00,28.8,25.7,00.0,37.9,30.2,12.5,0000.5,0041.79,0025.30,0023.61
2021-08-31 21:30:00,,0821.8,5.01,0.00,28.8,26.1,00.0,37.9,30.3,12.5,0000.5,0042.40,0025.36,0023.72
2021-08-31 21:31:00,,0821.9,4.98,0.00,28.8,26.5,00.0,37.8,30.4,12.4,0000.4,0043.73,0025.38,0023.75
2021-08-31 21:32:00,,0821.8,5.00,0.00,28.8,26.9,00.0,37.8,30.6,12.8,0000.3,0043.51,0025.36,0023.77
2021-08-31 21:33:00,,0821.8,5.01,0.00,28.8,27.3,00.0,37.8,30.7,12.6,0000.3,0043.72,0025.41,0023.79
2021-08-31 21:34:00,,0821.8,4.99,0.00,28.9,27.6,00.0,37.9,30.8,12.9,0000.3,0043.55,0025.46,0023.86
2021-08-31 21:35:00,,0821.8,4.99,0.00,29.0,27.4,00.0,37.9,30.7,12.8,0000.3,0040.97,0025.34,0023.79
2021-08-31 21:36:00,,0821.8,5.00,0.00,28.8,25.9,00.0,37.8,30.3,13.3,0000.3,0040.86,0025.25,0023.70
2021-08-31 21:37:00,,0821.8,5.00,0.00,28.7,25.7,00.0,37.8,30.2,13.6,0000.2,0042.30,0025.21,0023.65
2021-08-31 21:38:00,,0821.8,5.00,0.00,28.7,26.2,00.0,37.8,30.3,12.7,0000.1,0043.11,0025.14,0023.60
2021-08-31 21:39:00,,0821.8,4.99,0.00,28.7,26.6,00.0,37.8,30.5,12.5,0000.2,0041.35,0025.08,0023.57
2021-08-31 21:40:00,,0821.8,4.99,0.00,28.8,27.1,00.0,37.8,30.6,12.6,0000.3,0040.89,0025.09,0023.56
2021-08-31 21:41:00,,0822.1,5.00,0.00,28.9,27.4,00.0,37.8,30.8,12.2,0000.1,0040.31,0025.10,0023.53
2021-08-31 21:42:00,,0821.8,5.01,0.00,28.9,27.7,00.0,37.9,30.9,11.9,0000.0,0039.91,0025.15,0023.52
2021-08-31 21:43:00,,0821.8,5.00,0.00,29.0,27.4,00.0,37.9,30.8,12.0,0000.1,0040.27,0025.17,0023.52
2021-08-31 21:44:00,,0821.8,4.99,0.00,28.9,26.0,00.0,37.9,30.3,11.7,0000.3,0040.17,0025.22,0023.57
2021-08-31 21:45:00,,0821.8,4.99,0.00,28.8,25.8,00.0,37.9,30.2,11.8,0000.4,0039.68,0025.19,0023.57
2021-08-31 21:46:00,,0821.7,5.00,0.00,28.8,26.2,00.0,37.8,30.4,12.1,0000.3,0040.54,0025.21,0023.59
2021-08-31 21:47:00,,0821.8,5.01,0.00,28.7,26.6,00.0,37.8,30.5,12.1,0000.2,0040.83,0025.19,0023.61
2021-08-31 21:48:00,,0821.8,4.99,0.00,28.8,27.0,00.0,37.8,30.6,13.0,0000.2,0040.85,0025.27,0023.64
2021-08-31 21:49:00,,0821.8,5.00,0.00,28.9,27.4,00.0,37.8,30.7,13.7,0000.3,0040.02,0025.29,0023.65
2021-08-31 21:50:00,,0821.8,5.01,0.00,28.9,27.6,00.0,37.9,30.8,12.4,0000.3,0040.38,0025.35,0023.68
2021-08-31 21:51:00,,0821.8,5.01,0.00,28.9,26.6,00.0,37.9,30.5,11.7,0000.4,0040.98,0025.40,0023.74
2021-08-31 21:52:00,,0821.8,5.00,0.00,28.8,25.6,00.0,37.8,30.2,12.3,0000.4,0041.60,0025.40,0023.77
2021-08-31 21:53:00,,0821.8,5.00,0.00,28.7,26.0,00.0,37.8,30.3,12.2,0000.8,0041.09,0025.37,0023.81
2021-08-31 21:54:00,,0821.8,4.99,0.00,28.7,26.4,00.0,37.8,30.4,12.4,0000.9,0041.95,0025.35,0023.81
2021-08-31 21:55:00,,0821.8,5.00,0.00,28.8,26.8,00.0,37.8,30.5,12.3,0000.7,0043.50,0025.27,0023.75
2021-08-31 21:56:00,,0821.8,5.00,0.00,28.8,27.2,00.0,37.8,30.7,13.4,0000.7,0044.41,0025.24,0023.72
2021-08-31 21:57:00,,0821.8,5.01,0.00,28.9,27.6,00.0,37.8,30.8,12.8,0000.9,0044.48,0025.22,0023.70
2021-08-31 21:58:00,,0821.8,5.01,0.00,29.0,27.8,00.0,37.9,30.9,13.5,0000.9,0044.64,0025.22,0023.69
2021-08-31 21:59:00,,0821.8,4.99,0.00,28.9,26.7,00.0,37.9,30.5,13.4,0000.9,0043.54,0025.13,0023.68
